Location: Caseificio
(44.7500°N, 11.0500°E)
Time: 11:41:02
(UTC+00:00)

Meteor 2-10 Rocket - Visible Passes

Search period start: 26 September 2022 00:00
Search period end: 06 October 2022 00:00
Orbit: 734 x 883 km, 81.2° (Epoch: 25 September)

Date Brightness Start Highest point End Pass type
(mag) Time Alt. Az. Time Alt. Az. Time Alt. Az.
26 Sep 6.2 21:20:58 15° N 21:20:58 15° N 21:21:57 10° N visible
26 Sep 6.6 23:02:06 10° NNW 23:02:06 10° NNW 23:02:16 10° NNW visible
27 Sep 6.1 20:56:42 14° NNE 20:56:42 14° NNE 20:57:30 10° NNE visible
27 Sep 6.5 22:37:50 12° NNW 22:37:50 12° NNW 22:38:32 10° NNW visible
28 Sep 6.1 20:32:26 13° NNE 20:32:26 13° NNE 20:32:58 10° NNE visible
28 Sep 6.4 22:13:33 14° NNW 22:13:33 14° NNW 22:14:33 10° N visible
29 Sep 6.2 20:08:09 11° NNE 20:08:09 11° NNE 20:08:20 10° NNE visible
29 Sep 6.3 21:49:16 15° NNW 21:49:16 15° NNW 21:50:26 10° N visible
30 Sep 6.2 21:24:58 16° N 21:24:58 16° N 21:26:12 10° N visible
01 Oct 6.1 21:00:38 17° N 21:00:38 17° N 21:01:54 10° N visible
02 Oct 6.0 20:36:18 17° N 20:36:18 17° N 20:37:32 10° N visible
02 Oct 6.6 22:17:25 11° NNW 22:17:25 11° NNW 22:17:40 10° NNW visible
03 Oct 5.9 20:11:56 17° NNE 20:11:56 17° NNE 20:13:05 10° NNE visible
03 Oct 6.5 21:53:02 13° NNW 21:53:02 13° NNW 21:54:00 10° NNW visible
04 Oct 5.8 19:47:31 16° NNE 19:47:31 16° NNE 19:48:34 10° NNE visible
04 Oct 6.3 21:28:38 16° NNW 21:28:38 16° NNW 21:30:02 10° NNW visible
05 Oct 5.8 19:23:05 14° NNE 19:23:05 14° NNE 19:23:58 10° NNE visible
05 Oct 6.1 21:04:11 18° NNW 21:04:11 18° NNW 21:05:56 10° N visible
